Location: Black Swamp Observatory
(41.3920°N, 84.1250°W)
Time: 05:59:20
(UTC-05:00)

Tiangong - Visible Passes

Search period start: 06 December 2021 00:00
Search period end: 16 December 2021 00:00
Orbit: 380 x 384 km, 41.5° (Epoch: 06 December)

Date Brightness Start Highest point End Pass type
(mag) Time Alt. Az. Time Alt. Az. Time Alt. Az.
06 Dec 3.6 19:00:41 10° S 19:01:36 14° S 19:01:36 14° S visible
07 Dec 4.1 19:35:44 10° SW 19:36:18 14° SW 19:36:18 14° SW visible
08 Dec 2.5 18:35:38 10° SSW 18:38:19 25° SSE 18:38:46 25° SE visible
09 Dec 3.3 17:35:56 10° S 17:37:57 16° SSE 17:39:58 10° ESE visible
09 Dec 2.5 19:11:14 10° WSW 19:13:19 36° SW 19:13:19 36° SW visible
10 Dec 2.0 18:10:52 10° SW 18:13:50 39° SSE 18:15:39 19° E visible
10 Dec 4.4 19:47:21 10° W 19:47:48 13° W 19:47:48 13° W visible
11 Dec 0.9 18:46:45 10° WSW 18:49:54 78° S 18:50:06 73° SE visible
12 Dec 1.5 17:46:12 10° WSW 17:49:19 57° SSE 17:52:21 10° E visible
12 Dec 3.2 19:22:54 10° W 19:24:31 27° W 19:24:31 27° W visible
13 Dec 1.0 18:22:14 10° W 18:25:24 89° N 18:26:45 31° E visible
14 Dec 1.3 18:58:20 10° W 19:01:10 69° W 19:01:10 69° W visible
15 Dec 1.0 17:57:38 10° W 18:00:47 86° N 18:03:27 14° E visible
15 Dec 3.8 19:34:26 10° W 19:35:36 20° W 19:35:36 20° W visible
